Regional Weather Roundup
Issued by NWS

Home | Current Version | Previous Version | Text Only | Print | Product List | Glossary On
Versions: 1 2 3 4 5 6 7 8 9 10 11 12 13 14 15 16 17 18 19 20 21 22 23 24 25 26 27 28 29 30 31 32 33 34 35 36 37 38 39 40 41 42 43 44 45 46 47 48 49 50
000
ASUS43 KMPX 161310
RWRMN
WEATHER ROUNDUP FOR MINNESOTA
NATIONAL WEATHER SERVICE TWIN CITIES/CHANHASSEN MN
800 AM CDT WED APR 16 2014


NOTE: "FAIR" INDICATES FEW OR NO CLOUDS BELOW 12,000 FEET WITH NO
SIGNIFICANT WEATHER AND/OR OBSTRUCTIONS TO VISIBILITY. N/A MEANS
CURRENT SKY AND/OR WEATHER CONDITIONS ARE NOT AVAILABLE.

MNZ060>063-068>070-161400-
   Twin Cities Metro

CITY           SKY/WX    TMP DP  RH WIND       PRES   REMARKS
TWIN CITIES    CLOUDY    34  17  50 E17G26    29.97R WCI  23
ST PAUL        CLOUDY    34  18  52 E13       30.00S WCI  25
CRYSTAL        CLOUDY    33  18  53 E15G21    29.97R WCI  23
BLAINE         CLOUDY    34  25  69 E16G25    29.98R WCI  23
EDEN PRAIRIE   CLOUDY    36  18  48 E16       29.94R
LAKEVILLE      CLOUDY    34  19  55 E17G25    29.94F WCI  23
SOUTH ST PAUL  CLOUDY    37  19  46 E12G18    29.98R
LAKE ELMO      CLOUDY    32  23  69 E13G20    30.01R WCI  22
$$
MNZ001>005-007-008-013>017-022>024-027-028-161400-
   Northwest Minnesota

CITY           SKY/WX    TMP DP  RH WIND       PRES   REMARKS
BEMIDJI        CLOUDY    26   6  42 E10       30.06R WCI  16
HALLOCK        CLOUDY    25  10  54 E14       30.15R WCI  13
ROSEAU         PTSUNNY   23  10  58 E10       30.17R WCI  12
WARROAD        PTSUNNY   18  10  73 NE7       30.18R WCI   8
THIEF RVR FALL CLOUDY    27   7  43 NE15      30.09R WCI  15
CROOKSTON      PTSUNNY   28  10  47 E14       30.09R WCI  17
FOSSTON        CLOUDY    27   7  43 E12       30.05S WCI  16
DETROIT LAKES  CLOUDY    28  21  74 E7G17     29.99R WCI  21
MOORHEAD       CLOUDY    28  27  93 E13       29.99R WCI  18
PARK RAPIDS    LGT SNOW  24  21  88 E12       30.02R VSB 1   WCI  13
$$
MNZ006-009>011-018-025>026-161400-
   North Central Minnesota

CITY           SKY/WX    TMP DP  RH WIND       PRES   REMARKS
BAUDETTE       CLOUDY    20   7  57 E8        30.17R WCI  10
FLAG ISLAND    MOSUNNY   18   1  49 E6        30.19R WCI   9
INTL FALLS     PTSUNNY   20   4  50 E7        30.18R WCI  11
WASKISH        CLOUDY    21   7  53 E8        30.13R WCI  12
BIG FORK       CLOUDY    25   7  46 E5        30.13R WCI  19
LONGVILLE      CLOUDY    28  10  47 E6        30.06R WCI  22
GRAND RAPIDS   CLOUDY    25   7  46 E7        30.09R WCI  17
CRANE LAKE     CLOUDY    12  10  92 CALM      30.21R
ORR            CLOUDY    21   1  42 E3        30.13R
COOK           CLOUDY    19   7  58 E5        30.15R WCI  13
$$
MNZ012-019>021-037-161400-
   Northeast Minnesota

CITY           SKY/WX    TMP DP  RH WIND       PRES   REMARKS
DULUTH         CLOUDY    26  10  50 E12       30.11R WCI  16
ELY            CLOUDY    18   7  62 CALM      30.16R
HIBBING        CLOUDY    25   9  50 E9        30.12R WCI  15
EVELETH        CLOUDY    23  10  58 NE5       30.14R WCI  17
DULUTH HARBOR  PTSUNNY   28  21  74 NE10      30.17R WCI  19
TWO HARBORS    PTSUNNY   25  14  63 NE7       30.14R WCI  17
SILVER BAY     PTSUNNY   25  18  74 NE7       30.16R WCI  17
GRAND MARAIS     N/A     27  12  53 NE7       30.24R WCI  19
G MARAIS ARPRT PTSUNNY   16   0  48 NE5       30.17R WCI   9
$$
MNZ029>031-032-039>041-046>048-054>057-064-161400-
   West Central Minnesota

CITY           SKY/WX    TMP DP  RH WIND       PRES   REMARKS
FERGUS FALLS   CLOUDY    27  19  74 E14G25    29.93R WCI  15
WHEATON        LGT SNOW  30  27  86 E17       29.91R WCI  18
MORRIS         CLOUDY    30  23  74 E25G31    29.85S WCI  16
ALEXANDRIA     LGT SNOW  28  23  80 E17G30    29.92R WCI  16
ELBOW LAKE     LGT SNOW  28  24  88 E18G29    29.90R WCI  15
WADENA         LGT SNOW  25  21  86 E14G23    29.98R WCI  13
GLENWOOD       LGT SNOW  28  25  86 E23G30    29.90R WCI  14
APPLETON       CLOUDY    34  23  64 E21G29    29.83S WCI  22
BENSON         CLOUDY    30  21  69 SE20G26   29.86R WCI  18
ORTONVILLE     CLOUDY    30  21  69 E18G24    29.83R WCI  18
MADISON        CLOUDY    37  21  52 E23       29.81R
WILLMAR        FAIR      32  21  64 E17G23    29.86F WCI  21
$$
MNZ033>034-036-042>043-049>051-058-059-161400-
   Central Minnesota

CITY           SKY/WX    TMP DP  RH WIND       PRES   REMARKS
ST CLOUD       CLOUDY    30  22  72 E15G24    29.96S WCI  19
SAUK CENTRE    CLOUDY    28  23  83 E22       29.92S WCI  14
PAYNESVILLE    CLOUDY    30  22  72 E17G24    29.90F WCI  18
AITKIN         LGT SNOW  28  21  74 E9G16     30.05R WCI  20
PINE RIVER     LGT SNOW  25  21  86 E12       30.07R VSB 1   WCI  14
BRAINERD       LGT SNOW  30  22  72 E12G20    30.03S VSB 3/4 WCI  20
STAPLES        LGT SNOW  25  21  86 E10G20    30.00R WCI  15
LONG PRAIRIE   CLOUDY    27  23  86 NE17G28   29.94S WCI  14
LITTLE FALLS   PTSUNNY   28  23  80 E13G21    29.98S WCI  18
LITCHFIELD     CLOUDY    34  21  60 E14       29.90S WCI  24
BUFFALO        CLOUDY    32  21  64 E14G23    29.95F WCI  22
MAPLE LAKE     CLOUDY    32  25  76 E15G22    29.94F WCI  21
$$
MNZ037-044-045-052-053-161400-
   East Central Minnesota

CITY           SKY/WX    TMP DP  RH WIND       PRES   REMARKS
PRINCETON      CLOUDY    30  25  80 E14G21    30.00R WCI  20
MORA           CLOUDY    27  23  86 E13G18    30.06S WCI  16
CAMBRIDGE      SNOW      30  23  74 E10G24    30.00S VSB 1/2 WCI  21
RUSH CITY      CLOUDY    28  25  89 E12G18    30.05S WCI  18
MOOSE LAKE     LGT SNOW  28  14  54 CALM      30.09R
HINCKLEY       LGT SNOW  28  27  93 E13       30.08S VSB 3/4 WCI  18
CLOQUET        CLOUDY    27  10  50 E8        30.11R WCI  18
MCGREGOR       CLOUDY    28  19  69 E10       30.09R WCI  19
$$
MNZ071>073-080-081-089-090-097-098-161400-
   Southwest Minnesota

CITY           SKY/WX    TMP DP  RH WIND       PRES   REMARKS
MONTEVIDEO     CLOUDY    34  21  60 SE21G33   29.83R WCI  22
GRANITE FALLS  CLOUDY    34  22  60 E20G28    29.82R WCI  23
CANBY          CLOUDY    33  24  68 E15G21    29.79R WCI  23
MARSHALL       CLOUDY    36  21  55 E22G28    29.74R
REDWOOD FALLS  CLOUDY    36  22  56 E15G25    29.81S
OLIVIA         CLOUDY    34  23  64 E14G24    29.82S WCI  24
PIPESTONE      CLOUDY    39  28  65 SE12      29.65F
WINDOM         CLOUDY    37  28  70 SE16      29.74S
WORTHINGTON    CLOUDY    39  27  60 SE15      29.72R
JACKSON        CLOUDY    39  30  70 SE13G20   29.74R
TRACY          CLOUDY    35  27  72 E13       29.75R WCI  27
SLAYTON        CLOUDY    37  29  75 E10       29.72R
$$
MNZ065>067-074>077-082>085-091>093-161400-
   South Central Minnesota

CITY           SKY/WX    TMP DP  RH WIND       PRES   REMARKS
MANKATO        CLOUDY    36  23  60 SE24      29.86F
NEW ULM        CLOUDY    36  25  64 E12       29.82S
ST JAMES       CLOUDY    37  28  70 SE17G23   29.80S
FAIRMONT       CLOUDY    37  27  65 SE17      29.80F
GLENCOE        CLOUDY    35  19  51 E20G25    29.89F WCI  24
FARIBAULT      CLOUDY    37  18  44 E13G20    29.93R
OWATONNA       CLOUDY    36  21  55 SE16G24   29.90S
WASECA         CLOUDY    37  28  70 SE20G25   29.91R
ALBERT LEA     CLOUDY    37  27  65 SE21G33   29.88R
$$
MNZ078>079-086>088-094>096-161400-
   Southeast Minnesota

CITY           SKY/WX    TMP DP  RH WIND       PRES   REMARKS
ROCHESTER      CLOUDY    35  21  56 SE20G33   29.94R WCI  24
RED WING       CLOUDY    36  18  48 SE17G26   29.99R
STANTON        CLOUDY    36  19  51 E10G18    29.95R
DODGE CENTER   CLOUDY    37  21  52 SE22G32   29.92R
WINONA         CLOUDY    36  21  55 SE17      30.04F
AUSTIN         CLOUDY    34  23  64 SE17G26   29.91S WCI  23
PRESTON        CLOUDY    35  21  58 SE17G24   29.98R WCI  24
$$
ABBREVIATIONS USED IN REMARKS
   TC - TEMPERATURES IN CELSIUS
  WCI - WIND CHILL INDEX
   HX - HEAT INDEX
  VSB - VISIBILITY
$$



USA.gov is the U.S. government's official web portal to all federal, state and local government web resources and services.